When you browse on this site, cookies collect data to enhance your experience and personalize the content and advertising you see.
Visit our Privacy Policy to learn more. By continuing to use the site, you agree to this use of cookies and data.
  • In Sweden
  • List of Countries
  • For 7 days
  • Water Temperature
  • Satellite Maps
  • Weather Map
  • Weather Widgets
  • user-avatar
    Login

    Hourly Weather Carmarthen

    Today, 19 January, Saturday

    Time Temperature Precipitation Wind Pressure Humidity
    00:00 +3°C° 0.1 mm 5 mps 750 mmHg 93%
    01:00 +3°C° 0.1 mm 5 mps 750 mmHg 94%
    02:00 +3°C° 0.1 mm 5 mps 750 mmHg 94%
    03:00 +3°C° 0.1 mm 6 mps 750 mmHg 94%
    04:00 +3°C° 0.1 mm 6 mps 750 mmHg 94%
    05:00 +4°C° 0.1 mm 6 mps 750 mmHg 94%
    06:00 +4°C° 0.1 mm 6 mps 750 mmHg 95%
    07:00 +4°C° 0.2 mm 6 mps 751 mmHg 95%
    08:00 +4°C° 0.2 mm 6 mps 751 mmHg 94%
    09:00 +5°C° 0.2 mm 7 mps 751 mmHg 94%
    10:00 +5°C° 0.1 mm 7 mps 751 mmHg 94%
    11:00 +5°C° 0.1 mm 7 mps 752 mmHg 93%
    12:00 +5°C° 0.1 mm 6 mps 752 mmHg 92%
    13:00 +5°C° 0.1 mm 6 mps 752 mmHg 92%
    14:00 +6°C° 0.1 mm 5 mps 752 mmHg 92%
    15:00 +6°C° 0.1 mm 5 mps 752 mmHg 92%
    16:00 +5°C° 0 mm 5 mps 753 mmHg 92%
    17:00 +5°C° 0 mm 4 mps 753 mmHg 91%
    18:00 +5°C° 0 mm 4 mps 754 mmHg 91%
    19:00 +5°C° 0 mm 3 mps 754 mmHg 92%
    20:00 +4°C° 0 mm 3 mps 754 mmHg 92%
    21:00 +4°C° 0 mm 3 mps 755 mmHg 92%
    22:00 +4°C° 0.1 mm 3 mps 755 mmHg 92%
    23:00 +5°C° 0.1 mm 2 mps 756 mmHg 93%

    Tomorrow, 20 January, Sunday

    Time Temperature Precipitation Wind Pressure Humidity
    00:00 +5°C° 0.1 mm 2 mps 756 mmHg 93%
    01:00 +5°C° 0.1 mm 2 mps 756 mmHg 94%
    02:00 +6°C° 0.1 mm 1 mps 757 mmHg 94%
    03:00 +6°C° 0.1 mm 1 mps 757 mmHg 95%
    04:00 +6°C° 0 mm 1 mps 758 mmHg 95%
    05:00 +6°C° 0 mm 1 mps 758 mmHg 95%
    06:00 +6°C° 0 mm 1 mps 758 mmHg 95%
    07:00 +5°C° 0.2 mm 2 mps 759 mmHg 94%
    08:00 +4°C° 0.2 mm 4 mps 760 mmHg 93%
    09:00 +5°C° 0.2 mm 5 mps 761 mmHg 92%
    10:00 +4°C° 0.3 mm 7 mps 762 mmHg 88%
    11:00 +4°C° 0.3 mm 8 mps 762 mmHg 83%
    12:00 +3°C° 0.3 mm 10 mps 763 mmHg 79%
    13:00 +3°C° 0 mm 10 mps 764 mmHg 77%
    14:00 +3°C° 0 mm 9 mps 764 mmHg 76%
    15:00 +2°C° 0 mm 8 mps 764 mmHg 75%
    16:00 +2°C° 0 mm 7 mps 765 mmHg 75%
    17:00 +2°C° 0 mm 7 mps 766 mmHg 76%
    18:00 +1°C° 0 mm 6 mps 766 mmHg 77%
    19:00 +1°C° 0 mm 5 mps 767 mmHg 79%
    20:00 0°C° 0 mm 4 mps 767 mmHg 82%
    21:00 0°C° 0 mm 4 mps 767 mmHg 85%
    22:00 0°C° 0 mm 4 mps 768 mmHg 86%
    23:00 0°C° 0 mm 3 mps 768 mmHg 88%

    Day after tomorrow, 21 January, Monday

    Time Temperature Precipitation Wind Pressure Humidity
    00:00 0°C° 0 mm 3 mps 768 mmHg 90%
    01:00 0°C° 0 mm 3 mps 768 mmHg 89%
    02:00 0°C° 0 mm 3 mps 767 mmHg 88%
    03:00 0°C° 0 mm 3 mps 767 mmHg 87%
    04:00 0°C° 0 mm 3 mps 766 mmHg 86%
    05:00 -1°C° 0 mm 4 mps 766 mmHg 85%
    06:00 -1°C° 0 mm 4 mps 766 mmHg 84%
    07:00 -1°C° 0 mm 5 mps 765 mmHg 83%
    08:00 0°C° 0 mm 5 mps 764 mmHg 81%
    09:00 -1°C° 0 mm 6 mps 763 mmHg 80%
    10:00 0°C° 0 mm 7 mps 762 mmHg 77%
    11:00 +1°C° 0 mm 9 mps 760 mmHg 73%
    12:00 +1°C° 0 mm 10 mps 759 mmHg 69%
    13:00 +1°C° 0.1 mm 11 mps 757 mmHg 73%
    14:00 +2°C° 0.1 mm 11 mps 755 mmHg 76%
    15:00 +2°C° 0.1 mm 12 mps 753 mmHg 79%
    16:00 +2°C° 1.2 mm 11 mps 752 mmHg 82%
    17:00 +2°C° 1.2 mm 11 mps 751 mmHg 85%
    18:00 +2°C° 1.2 mm 10 mps 750 mmHg 88%
    19:00 0°C° 0.1 mm 10 mps 749 mmHg 85%
    20:00 -1°C° 0.1 mm 9 mps 749 mmHg 82%
    21:00 -3°C° 0.1 mm 9 mps 748 mmHg 79%
    22:00 -3°C° 0 mm 9 mps 748 mmHg 78%
    23:00 -3°C° 0 mm 10 mps 747 mmHg 78%

    22 January, Tuesday

    Time Temperature Precipitation Wind Pressure Humidity
    00:00 -2°C° 0 mm 10 mps 747 mmHg 78%
    01:00 -2°C° 0.1 mm 10 mps 747 mmHg 78%
    02:00 -2°C° 0.1 mm 10 mps 746 mmHg 78%
    03:00 -2°C° 0.1 mm 10 mps 746 mmHg 77%
    04:00 -2°C° 0.1 mm 10 mps 746 mmHg 77%
    05:00 -3°C° 0.1 mm 10 mps 745 mmHg 77%
    06:00 -3°C° 0.1 mm 10 mps 745 mmHg 76%
    07:00 -3°C° 0 mm 9 mps 746 mmHg 75%
    08:00 -4°C° 0 mm 9 mps 746 mmHg 74%
    09:00 -4°C° 0 mm 9 mps 746 mmHg 73%
    10:00 -3°C° 0.2 mm 9 mps 746 mmHg 70%
    11:00 -1°C° 0.2 mm 9 mps 746 mmHg 66%
    12:00 0°C° 0.2 mm 9 mps 746 mmHg 63%
    13:00 0°C° 0.2 mm 9 mps 746 mmHg 63%
    14:00 0°C° 0.2 mm 9 mps 747 mmHg 62%
    15:00 0°C° 0.2 mm 8 mps 747 mmHg 62%
    16:00 -1°C° 0.2 mm 8 mps 747 mmHg 65%
    17:00 -1°C° 0.2 mm 8 mps 747 mmHg 67%
    18:00 -2°C° 0.2 mm 8 mps 747 mmHg 69%
    19:00 -2°C° 0.2 mm 8 mps 747 mmHg 70%
    20:00 -2°C° 0.2 mm 8 mps 747 mmHg 71%
    21:00 -2°C° 0.2 mm 8 mps 747 mmHg 72%
    22:00 -2°C° 0.2 mm 8 mps 748 mmHg 73%
    23:00 -2°C° 0.2 mm 8 mps 748 mmHg 73%

    23 January, Wednesday

    Time Temperature Precipitation Wind Pressure Humidity
    00:00 -2°C° 0.2 mm 8 mps 748 mmHg 73%
    01:00 -2°C° 0.1 mm 8 mps 748 mmHg 74%
    02:00 -2°C° 0.1 mm 8 mps 748 mmHg 74%
    03:00 -2°C° 0.1 mm 8 mps 748 mmHg 74%
    04:00 -2°C° 0 mm 8 mps 748 mmHg 73%
    05:00 -2°C° 0 mm 8 mps 748 mmHg 72%
    06:00 -2°C° 0 mm 8 mps 749 mmHg 72%
    07:00 -1°C° 0 mm 8 mps 749 mmHg 71%
    08:00 -1°C° 0 mm 8 mps 750 mmHg 71%
    09:00 -1°C° 0 mm 8 mps 750 mmHg 71%
    10:00 0°C° 0.1 mm 8 mps 750 mmHg 69%
    11:00 +1°C° 0.1 mm 8 mps 751 mmHg 67%
    12:00 +1°C° 0.1 mm 8 mps 751 mmHg 66%
    13:00 +1°C° 0 mm 9 mps 751 mmHg 66%
    14:00 +1°C° 0 mm 9 mps 751 mmHg 66%
    15:00 +1°C° 0 mm 9 mps 752 mmHg 67%
    16:00 +1°C° 0 mm 10 mps 752 mmHg 69%
    17:00 +1°C° 0 mm 10 mps 753 mmHg 71%
    18:00 -1°C° 0 mm 11 mps 754 mmHg 73%
    19:00 +1°C° 0 mm 11 mps 754 mmHg 74%
    20:00 +1°C° 0 mm 10 mps 755 mmHg 75%
    21:00 +1°C° 0 mm 10 mps 755 mmHg 76%
    22:00 +1°C° 0 mm 10 mps 756 mmHg 76%
    23:00 +1°C° 0 mm 10 mps 756 mmHg 75%

    24 January, Thursday

    Time Temperature Precipitation Wind Pressure Humidity
    00:00 +1°C° 0 mm 9 mps 757 mmHg 75%
    01:00 +1°C° 0 mm 9 mps 757 mmHg 76%
    02:00 +1°C° 0 mm 8 mps 758 mmHg 77%
    03:00 0°C° 0 mm 7 mps 759 mmHg 78%
    04:00 0°C° 0 mm 7 mps 759 mmHg 80%
    05:00 -1°C° 0 mm 6 mps 760 mmHg 82%
    06:00 0°C° 0 mm 5 mps 760 mmHg 84%
    07:00 0°C° 0 mm 4 mps 761 mmHg 85%
    08:00 0°C° 0 mm 4 mps 761 mmHg 85%
    09:00 0°C° 0 mm 3 mps 762 mmHg 86%
    10:00 +2°C° 0 mm 3 mps 762 mmHg 83%
    11:00 +3°C° 0 mm 3 mps 762 mmHg 79%
    12:00 +4°C° 0 mm 3 mps 762 mmHg 76%
    13:00 +4°C° 0 mm 4 mps 762 mmHg 77%
    14:00 +4°C° 0 mm 4 mps 762 mmHg 78%
    15:00 +4°C° 0 mm 4 mps 762 mmHg 79%
    16:00 +2°C° 0 mm 5 mps 763 mmHg 79%
    17:00 +2°C° 0 mm 5 mps 763 mmHg 80%
    18:00 +1°C° 0 mm 6 mps 763 mmHg 80%
    19:00 +1°C° 0 mm 6 mps 764 mmHg 76%
    20:00 -1°C° 0 mm 6 mps 764 mmHg 72%
    21:00 -1°C° 0 mm 6 mps 764 mmHg 68%
    22:00 -1°C° 0 mm 5 mps 765 mmHg 67%
    23:00 -1°C° 0 mm 5 mps 765 mmHg 67%
    Show more